| time (UTC) | temp C | wind direction | speed KPH | gust KPH | rain 1hr cm | rain 24hr cm | rain mn cm | humidity % | barometer mb |
| 20260507000515 | 12 | 344 | 0.0 | 0.0 | 0.00 | 0.00 | 0.00 | 79 | 1017.0 |
| 20260507000012 | 13 | 344 | 0.0 | 0.0 | 0.00 | 0.00 | 0.00 | 77 | 1017.0 |
| 20260506235512 | 13 | 343 | 0.0 | 0.0 | 0.00 | 0.00 | 0.00 | 75 | 1017.0 |
| 20260506235012 | 14 | 343 | 0.0 | 0.0 | 0.00 | 0.00 | 0.00 | 75 | 1017.0 |
| 20260506234512 | 14 | 343 | 0.0 | 0.0 | 0.00 | 0.00 | 0.00 | 75 | 1017.0 |
| 20260506234013 | 13 | 343 | 0.0 | 0.0 | 0.00 | 0.00 | 0.00 | 75 | 1017.0 |
| 20260506233512 | 13 | 343 | 0.0 | 0.0 | 0.00 | 0.00 | 0.00 | 75 | 1017.0 |
| 20260506233013 | 14 | 343 | 0.0 | 0.0 | 0.00 | 0.00 | 0.00 | 74 | 1017.0 |
| 20260506232512 | 13 | 343 | 0.0 | 0.0 | 0.00 | 0.00 | 0.00 | 74 | 1017.0 |
| 20260506232021 | 13 | 343 | 0.0 | 0.0 | 0.00 | 0.00 | 0.00 | 74 | 1017.0 |
| 20260506231512 | 13 | 343 | 0.0 | 0.0 | 0.00 | 0.00 | 0.00 | 75 | 1017.0 |
| 20260506231012 | 13 | 343 | 0.0 | 0.0 | 0.00 | 0.00 | 0.00 | 74 | 1017.0 |
| 20260506230512 | 13 | 343 | 0.0 | 0.0 | 0.00 | 0.00 | 0.00 | 74 | 1017.0 |
| 20260506230012 | 14 | 343 | 0.0 | 0.0 | 0.00 | 0.00 | 0.00 | 73 | 1017.0 |
| 20260506225513 | 13 | 343 | 0.0 | 0.0 | 0.00 | 0.00 | 0.00 | 74 | 1017.0 |
| 20260506225012 | 13 | 343 | 0.0 | 0.0 | 0.00 | 0.00 | 0.00 | 75 | 1017.0 |
| 20260506224513 | 13 | 343 | 0.0 | 0.0 | 0.00 | 0.00 | 0.00 | 75 | 1017.0 |
| 20260506224013 | 14 | 344 | 0.0 | 0.0 | 0.00 | 0.00 | 0.00 | 76 | 1017.0 |
| 20260506223513 | 13 | 343 | 0.0 | 0.0 | 0.00 | 0.00 | 0.00 | 76 | 1017.0 |
| 20260506223012 | 13 | 344 | 0.0 | 0.0 | 0.00 | 0.00 | 0.00 | 77 | 1017.0 |
| 20260506222512 | 13 | 344 | 0.0 | 0.0 | 0.00 | 0.00 | 0.00 | 76 | 1017.0 |
| 20260506222012 | 14 | 344 | 0.0 | 0.0 | 0.00 | 0.00 | 0.00 | 75 | 1017.0 |
| 20260506221512 | 14 | 344 | 0.0 | 0.0 | 0.00 | 0.00 | 0.00 | 73 | 1017.0 |
| 20260506221013 | 15 | 344 | 0.0 | 0.0 | 0.00 | 0.00 | 0.00 | 67 | 1017.0 |
| 20260506220512 | 15 | 343 | 0.0 | 0.0 | 0.00 | 0.00 | 0.00 | 66 | 1018.0 |
| 20260506220012 | 15 | 343 | 0.0 | 0.0 | 0.00 | 0.00 | 0.00 | 68 | 1018.0 |
| 20260506215512 | 15 | 343 | 0.0 | 0.0 | 0.00 | 0.00 | 0.00 | 69 | 1018.0 |
| 20260506215012 | 15 | 343 | 0.0 | 0.0 | 0.00 | 0.00 | 0.00 | 70 | 1018.0 |
| 20260506214512 | 15 | 343 | 0.0 | 0.0 | 0.00 | 0.00 | 0.00 | 72 | 1018.0 |
| 20260506214012 | 15 | 343 | 0.0 | 0.0 | 0.00 | 0.00 | 0.00 | 72 | 1018.0 |
| 20260506213513 | 15 | 343 | 0.0 | 0.0 | 0.00 | 0.00 | 0.00 | 73 | 1018.0 |
| 20260506213014 | 15 | 343 | 0.0 | 0.0 | 0.00 | 0.00 | 0.00 | 72 | 1018.0 |
| 20260506212518 | 15 | 343 | 0.0 | 0.0 | 0.00 | 0.00 | 0.00 | 71 | 1018.0 |
| 20260506212012 | 15 | 343 | 0.0 | 0.0 | 0.00 | 0.00 | 0.00 | 71 | 1018.0 |
| 20260506211512 | 15 | 343 | 0.0 | 0.0 | 0.00 | 0.00 | 0.00 | 69 | 1017.0 |
| 20260506211012 | 15 | 342 | 0.0 | 0.0 | 0.00 | 0.00 | 0.00 | 72 | 1018.0 |
| 20260506210513 | 15 | 342 | 0.0 | 0.0 | 0.00 | 0.00 | 0.00 | 72 | 1018.0 |
| 20260506210016 | 15 | 342 | 0.0 | 0.0 | 0.00 | 0.00 | 0.00 | 72 | 1018.0 |
| 20260506205513 | 15 | 342 | 0.0 | 0.0 | 0.00 | 0.00 | 0.00 | 71 | 1017.0 |
| 20260506205012 | 15 | 342 | 0.0 | 0.0 | 0.00 | 0.00 | 0.00 | 71 | 1017.0 |
| 20260506204515 | 16 | 342 | 0.0 | 0.0 | 0.00 | 0.00 | 0.00 | 70 | 1018.0 |
| 20260506203535 | 15 | 342 | 0.0 | 0.0 | 0.00 | 0.00 | 0.00 | 66 | 1018.0 |
| 20260506203012 | 15 | 335 | 0.0 | 0.0 | 0.00 | 0.00 | 0.00 | 69 | 1018.0 |
| 20260506202512 | 15 | 335 | 0.0 | 0.0 | 0.00 | 0.00 | 0.00 | 69 | 1018.0 |
| 20260506202012 | 16 | 335 | 0.0 | 0.0 | 0.00 | 0.00 | 0.00 | 69 | 1018.0 |
| 20260506201512 | 16 | 72 | 0.0 | 0.0 | 0.00 | 0.00 | 0.00 | 71 | 1018.0 |
| 20260506201012 | 15 | 72 | 0.0 | 0.0 | 0.00 | 0.00 | 0.00 | 72 | 1018.0 |
| 20260506200512 | 15 | 131 | 0.0 | 0.0 | 0.00 | 0.00 | 0.00 | 72 | 1018.0 |
| 20260506200013 | 15 | 351 | 0.0 | 0.0 | 0.00 | 0.00 | 0.00 | 72 | 1018.0 |
| 20260506195513 | 16 | 351 | 0.0 | 0.0 | 0.00 | 0.00 | 0.00 | 72 | 1018.0 |
| 20260506195013 | 16 | 351 | 0.0 | 0.0 | 0.00 | 0.00 | 0.00 | 71 | 1017.0 |
| 20260506194513 | 16 | 351 | 0.0 | 0.0 | 0.00 | 0.00 | 0.00 | 70 | 1017.0 |
| 20260506194012 | 16 | 351 | 0.0 | 0.0 | 0.00 | 0.00 | 0.00 | 68 | 1017.0 |
| 20260506193512 | 16 | 351 | 0.0 | 0.0 | 0.00 | 0.00 | 0.00 | 69 | 1017.0 |
| 20260506193012 | 16 | 351 | 0.0 | 0.0 | 0.00 | 0.00 | 0.00 | 68 | 1017.0 |
| 20260506192512 | 16 | 351 | 0.0 | 0.0 | 0.00 | 0.00 | 0.00 | 69 | 1017.0 |
| 20260506192012 | 17 | 351 | 0.0 | 0.0 | 0.00 | 0.00 | 0.00 | 68 | 1017.0 |
| 20260506191516 | 17 | 351 | 0.0 | 0.0 | 0.00 | 0.00 | 0.00 | 67 | 1017.0 |
| 20260506191012 | 17 | 351 | 0.0 | 0.0 | 0.00 | 0.00 | 0.00 | 66 | 1017.0 |
| 20260506190512 | 17 | 351 | 0.0 | 0.0 | 0.00 | 0.00 | 0.00 | 66 | 1017.0 |
| 20260506190012 | 17 | 351 | 0.0 | 0.0 | 0.00 | 0.00 | 0.00 | 65 | 1017.0 |
| 20260506185512 | 17 | 351 | 0.0 | 0.0 | 0.00 | 0.00 | 0.00 | 65 | 1017.0 |
| 20260506185013 | 17 | 351 | 0.0 | 0.0 | 0.00 | 0.00 | 0.00 | 65 | 1017.0 |
| 20260506184512 | 17 | 351 | 0.0 | 0.0 | 0.00 | 0.00 | 0.00 | 64 | 1017.0 |
| 20260506184012 | 17 | 351 | 0.0 | 0.0 | 0.00 | 0.00 | 0.00 | 64 | 1017.0 |
| 20260506183513 | 17 | 351 | 0.0 | 0.0 | 0.00 | 0.00 | 0.00 | 64 | 1017.0 |
| 20260506183012 | 18 | 351 | 0.0 | 0.0 | 0.00 | 0.00 | 0.00 | 64 | 1017.0 |
| 20260506182512 | 18 | 351 | 0.0 | 0.0 | 0.00 | 0.00 | 0.00 | 63 | 1017.0 |
| 20260506182012 | 17 | 193 | 0.0 | 0.0 | 0.00 | 0.00 | 0.00 | 63 | 1017.0 |
| 20260506181516 | 17 | 192 | 0.0 | 0.0 | 0.00 | 0.00 | 0.00 | 64 | 1017.0 |
| 20260506181012 | 17 | 192 | 0.0 | 0.0 | 0.00 | 0.00 | 0.00 | 64 | 1016.0 |
| 20260506180513 | 18 | 198 | 3.2 | 3.2 | 0.00 | 0.00 | 0.00 | 63 | 1016.0 |
| 20260506180012 | 18 | 324 | 0.0 | 0.0 | 0.00 | 0.00 | 0.00 | 61 | 1016.0 |
| 20260506175512 | 18 | 324 | 0.0 | 0.0 | 0.00 | 0.00 | 0.00 | 60 | 1016.0 |
| 20260506175014 | 19 | 324 | 0.0 | 0.0 | 0.00 | 0.00 | 0.00 | 59 | 1016.0 |
| 20260506174512 | 19 | 324 | 0.0 | 0.0 | 0.00 | 0.00 | 0.00 | 57 | 1016.0 |
| 20260506174013 | 19 | 324 | 0.0 | 0.0 | 0.00 | 0.00 | 0.00 | 54 | 1016.0 |
| 20260506173513 | 19 | 324 | 0.0 | 0.0 | 0.00 | 0.00 | 0.00 | 53 | 1016.0 |
| 20260506173013 | 19 | 324 | 0.0 | 0.0 | 0.00 | 0.00 | 0.00 | 54 | 1016.0 |
| 20260506172512 | 20 | 324 | 0.0 | 0.0 | 0.00 | 0.00 | 0.00 | 54 | 1016.0 |
| 20260506172014 | 20 | 324 | 0.0 | 0.0 | 0.00 | 0.00 | 0.00 | 58 | 1016.0 |
| 20260506171513 | 20 | 156 | 0.0 | 0.0 | 0.00 | 0.00 | 0.00 | 50 | 1016.0 |
| 20260506171013 | 20 | 156 | 1.6 | 1.6 | 0.00 | 0.00 | 0.00 | 52 | 1016.0 |
| 20260506170512 | 20 | 189 | 0.0 | 0.0 | 0.00 | 0.00 | 0.00 | 53 | 1016.0 |
| 20260506170012 | 20 | 210 | 0.0 | 0.0 | 0.00 | 0.00 | 0.00 | 54 | 1016.0 |
| 20260506165512 | 20 | 173 | 0.0 | 0.0 | 0.00 | 0.00 | 0.00 | 55 | 1016.0 |
| 20260506165013 | 21 | 251 | 1.6 | 1.6 | 0.00 | 0.00 | 0.00 | 57 | 1016.0 |
| 20260506164514 | 21 | 272 | 0.0 | 0.0 | 0.00 | 0.00 | 0.00 | 56 | 1016.0 |
| 20260506164012 | 21 | 317 | 3.2 | 3.2 | 0.00 | 0.00 | 0.00 | 54 | 1016.0 |
| 20260506163512 | 22 | 300 | 4.8 | 4.8 | 0.00 | 0.00 | 0.00 | 52 | 1016.0 |
| 20260506163013 | 22 | 278 | 3.2 | 3.2 | 0.00 | 0.00 | 0.00 | 47 | 1016.0 |
| 20260506162513 | 23 | 280 | 0.0 | 0.0 | 0.00 | 0.00 | 0.00 | 42 | 1016.0 |
| 20260506162013 | 23 | 280 | 0.0 | 0.0 | 0.00 | 0.00 | 0.00 | 40 | 1016.0 |
| 20260506161514 | 23 | 240 | 0.0 | 0.0 | 0.00 | 0.00 | 0.00 | 39 | 1016.0 |
| 20260506161013 | 23 | 243 | 0.0 | 0.0 | 0.00 | 0.00 | 0.00 | 39 | 1016.0 |
| 20260506160512 | 23 | 184 | 0.0 | 0.0 | 0.00 | 0.00 | 0.00 | 43 | 1016.0 |
| 20260506160012 | 23 | 190 | 6.4 | 6.4 | 0.00 | 0.00 | 0.00 | 42 | 1016.0 |
| 20260506155512 | 23 | 171 | 4.8 | 4.8 | 0.00 | 0.00 | 0.00 | 42 | 1016.0 |
| 20260506155012 | 23 | 195 | 8.0 | 9.7 | 0.00 | 0.00 | 0.00 | 41 | 1016.0 |
| 20260506154513 | 23 | 221 | 0.0 | 0.0 | 0.00 | 0.00 | 0.00 | 39 | 1016.0 |
| 20260506154013 | 23 | 236 | 0.0 | 0.0 | 0.00 | 0.00 | 0.00 | 37 | 1016.0 |
| 20260506153512 | 23 | 171 | 0.0 | 0.0 | 0.00 | 0.00 | 0.00 | 38 | 1016.0 |
| 20260506153012 | 23 | 174 | 4.8 | 4.8 | 0.00 | 0.00 | 0.00 | 37 | 1016.0 |
| 20260506152513 | 23 | 191 | 3.2 | 3.2 | 0.00 | 0.00 | 0.00 | 37 | 1016.0 |
| 20260506152015 | 23 | 173 | 4.8 | 4.8 | 0.00 | 0.00 | 0.00 | 37 | 1016.0 |
| 20260506151512 | 23 | 210 | 4.8 | 4.8 | 0.00 | 0.00 | 0.00 | 37 | 1016.0 |
| 20260506151012 | 23 | 186 | 4.8 | 4.8 | 0.00 | 0.00 | 0.00 | 39 | 1016.0 |
| 20260506150513 | 24 | 205 | 6.4 | 6.4 | 0.00 | 0.00 | 0.00 | 39 | 1016.0 |
| 20260506150014 | 24 | 180 | 3.2 | 3.2 | 0.00 | 0.00 | 0.00 | 36 | 1016.0 |
| 20260506145512 | 24 | 168 | 3.2 | 3.2 | 0.00 | 0.00 | 0.00 | 36 | 1016.0 |
| 20260506145013 | 24 | 186 | 0.0 | 0.0 | 0.00 | 0.00 | 0.00 | 36 | 1016.0 |
| 20260506144512 | 24 | 177 | 4.8 | 4.8 | 0.00 | 0.00 | 0.00 | 36 | 1016.0 |
| 20260506144012 | 24 | 184 | 0.0 | 0.0 | 0.00 | 0.00 | 0.00 | 36 | 1016.0 |
| 20260506143512 | 24 | 213 | 0.0 | 0.0 | 0.00 | 0.00 | 0.00 | 36 | 1016.0 |
| 20260506143012 | 24 | 173 | 0.0 | 0.0 | 0.00 | 0.00 | 0.00 | 37 | 1016.0 |
| 20260506142512 | 25 | 191 | 3.2 | 3.2 | 0.00 | 0.00 | 0.00 | 36 | 1016.0 |
| 20260506142013 | 25 | 180 | 8.0 | 8.0 | 0.00 | 0.00 | 0.00 | 34 | 1016.0 |
| 20260506141512 | 25 | 156 | 3.2 | 3.2 | 0.00 | 0.00 | 0.00 | 34 | 1016.0 |
| 20260506141012 | 25 | 192 | 6.4 | 6.4 | 0.00 | 0.00 | 0.00 | 34 | 1016.0 |
| 20260506140513 | 25 | 150 | 0.0 | 0.0 | 0.00 | 0.00 | 0.00 | 33 | 1016.0 |
| 20260506140012 | 25 | 191 | 6.4 | 6.4 | 0.00 | 0.00 | 0.00 | 34 | 1016.0 |
| 20260506135512 | 24 | 190 | 3.2 | 3.2 | 0.00 | 0.00 | 0.00 | 33 | 1016.0 |
| 20260506135012 | 23 | 156 | 6.4 | 6.4 | 0.00 | 0.00 | 0.00 | 35 | 1016.0 |
| 20260506134512 | 23 | 184 | 8.0 | 8.0 | 0.00 | 0.00 | 0.00 | 35 | 1016.0 |
| 20260506134012 | 23 | 202 | 6.4 | 6.4 | 0.00 | 0.00 | 0.00 | 35 | 1016.0 |
| 20260506133513 | 24 | 212 | 6.4 | 8.0 | 0.00 | 0.00 | 0.00 | 33 | 1016.0 |
| 20260506133014 | 24 | 158 | 6.4 | 8.0 | 0.00 | 0.00 | 0.00 | 33 | 1016.0 |
| 20260506132512 | 24 | 150 | 8.0 | 9.7 | 0.00 | 0.00 | 0.00 | 32 | 1016.0 |
| 20260506132012 | 25 | 204 | 4.8 | 4.8 | 0.00 | 0.00 | 0.00 | 31 | 1016.0 |
| 20260506131516 | 25 | 158 | 4.8 | 4.8 | 0.00 | 0.00 | 0.00 | 31 | 1016.0 |
| 20260506131016 | 25 | 191 | 17.7 | 17.7 | 0.00 | 0.00 | 0.00 | 32 | 1016.0 |
| 20260506130513 | 25 | 183 | 6.4 | 8.0 | 0.00 | 0.00 | 0.00 | 32 | 1016.0 |
| 20260506130013 | 25 | 195 | 6.4 | 8.0 | 0.00 | 0.00 | 0.00 | 32 | 1016.0 |
| 20260506125512 | 25 | 180 | 9.7 | 11.3 | 0.00 | 0.00 | 0.00 | 32 | 1016.0 |
| 20260506125013 | 25 | 132 | 8.0 | 9.7 | 0.00 | 0.00 | 0.00 | 32 | 1016.0 |
| 20260506124512 | 25 | 156 | 6.4 | 8.0 | 0.00 | 0.00 | 0.00 | 32 | 1016.0 |
| 20260506124012 | 25 | 178 | 8.0 | 8.0 | 0.00 | 0.00 | 0.00 | 33 | 1016.0 |
| 20260506123513 | 25 | 153 | 8.0 | 8.0 | 0.00 | 0.00 | 0.00 | 33 | 1016.0 |
| 20260506123012 | 25 | 197 | 6.4 | 6.4 | 0.00 | 0.00 | 0.00 | 33 | 1016.0 |
| 20260506122513 | 25 | 178 | 11.3 | 11.3 | 0.00 | 0.00 | 0.00 | 33 | 1016.0 |
| 20260506122012 | 25 | 210 | 3.2 | 3.2 | 0.00 | 0.00 | 0.00 | 34 | 1016.0 |
| 20260506121512 | 25 | 150 | 9.7 | 11.3 | 0.00 | 0.00 | 0.00 | 35 | 1016.0 |
| 20260506121012 | 25 | 190 | 1.6 | 1.6 | 0.00 | 0.00 | 0.00 | 36 | 1016.0 |
| 20260506120512 | 25 | 192 | 3.2 | 3.2 | 0.00 | 0.00 | 0.00 | 37 | 1016.0 |
| 20260506120013 | 25 | 174 | 3.2 | 3.2 | 0.00 | 0.00 | 0.00 | 38 | 1016.0 |
| 20260506115513 | 24 | 186 | 8.0 | 8.0 | 0.00 | 0.00 | 0.00 | 39 | 1016.0 |
| 20260506115013 | 25 | 197 | 11.3 | 11.3 | 0.00 | 0.00 | 0.00 | 39 | 1016.0 |
| 20260506114513 | 25 | 230 | 4.8 | 4.8 | 0.00 | 0.00 | 0.00 | 39 | 1017.0 |
| 20260506114013 | 24 | 180 | 3.2 | 3.2 | 0.00 | 0.00 | 0.00 | 40 | 1017.0 |
| 20260506113512 | 25 | 223 | 3.2 | 3.2 | 0.00 | 0.00 | 0.00 | 40 | 1016.0 |
| 20260506113013 | 25 | 198 | 1.6 | 1.6 | 0.00 | 0.00 | 0.00 | 39 | 1016.0 |
| 20260506112512 | 25 | 202 | 3.2 | 3.2 | 0.00 | 0.00 | 0.00 | 41 | 1017.0 |
| 20260506112012 | 25 | 210 | 4.8 | 4.8 | 0.00 | 0.00 | 0.00 | 41 | 1017.0 |
| 20260506111514 | 24 | 180 | 4.8 | 4.8 | 0.00 | 0.00 | 0.00 | 42 | 1017.0 |
| 20260506111012 | 23 | 203 | 8.0 | 8.0 | 0.00 | 0.00 | 0.00 | 44 | 1017.0 |
| 20260506110513 | 23 | 144 | 3.2 | 3.2 | 0.00 | 0.00 | 0.00 | 44 | 1017.0 |
| 20260506110012 | 23 | 212 | 9.7 | 9.7 | 0.00 | 0.00 | 0.00 | 45 | 1017.0 |
| 20260506105513 | 23 | 180 | 0.0 | 0.0 | 0.00 | 0.00 | 0.00 | 45 | 1017.0 |
| 20260506105012 | 23 | 191 | 0.0 | 0.0 | 0.00 | 0.00 | 0.00 | 47 | 1017.0 |
| 20260506104513 | 23 | 185 | 1.6 | 1.6 | 0.00 | 0.00 | 0.00 | 47 | 1017.0 |
| 20260506104014 | 23 | 336 | 0.0 | 0.0 | 0.00 | 0.00 | 0.00 | 47 | 1017.0 |
| 20260506103513 | 23 | 237 | 0.0 | 0.0 | 0.00 | 0.00 | 0.00 | 47 | 1017.0 |
| 20260506103012 | 23 | 292 | 1.6 | 1.6 | 0.00 | 0.00 | 0.00 | 47 | 1017.0 |
| 20260506102513 | 23 | 228 | 4.8 | 4.8 | 0.00 | 0.00 | 0.00 | 47 | 1017.0 |
| 20260506102012 | 22 | 77 | 0.0 | 0.0 | 0.00 | 0.00 | 0.00 | 50 | 1017.0 |
| 20260506101513 | 22 | 138 | 0.0 | 0.0 | 0.00 | 0.00 | 0.00 | 50 | 1017.0 |
| 20260506101012 | 21 | 275 | 6.4 | 6.4 | 0.00 | 0.00 | 0.00 | 51 | 1017.0 |
| 20260506100512 | 22 | 205 | 6.4 | 8.0 | 0.00 | 0.00 | 0.00 | 51 | 1017.0 |
| 20260506100013 | 21 | 174 | 3.2 | 3.2 | 0.00 | 0.00 | 0.00 | 52 | 1017.0 |
| 20260506095513 | 21 | 174 | 3.2 | 3.2 | 0.00 | 0.00 | 0.00 | 52 | 1017.0 |
| 20260506095013 | 22 | 217 | 4.8 | 4.8 | 0.00 | 0.00 | 0.00 | 50 | 1017.0 |
| 20260506094513 | 21 | 171 | 4.8 | 4.8 | 0.00 | 0.00 | 0.00 | 51 | 1017.0 |
| 20260506094012 | 21 | 191 | 11.3 | 11.3 | 0.00 | 0.00 | 0.00 | 53 | 1017.0 |
| 20260506093512 | 21 | 165 | 4.8 | 4.8 | 0.00 | 0.00 | 0.00 | 52 | 1017.0 |
| 20260506093012 | 21 | 210 | 4.8 | 6.4 | 0.00 | 0.00 | 0.00 | 54 | 1017.0 |
| 20260506092513 | 22 | 156 | 4.8 | 4.8 | 0.00 | 0.00 | 0.00 | 53 | 1017.0 |
| 20260506092012 | 22 | 174 | 9.7 | 9.7 | 0.00 | 0.00 | 0.00 | 54 | 1017.0 |
| 20260506091512 | 21 | 186 | 0.0 | 0.0 | 0.00 | 0.00 | 0.00 | 56 | 1017.0 |
| 20260506091012 | 22 | 259 | 3.2 | 3.2 | 0.00 | 0.00 | 0.00 | 55 | 1017.0 |
| 20260506090513 | 21 | 174 | 0.0 | 0.0 | 0.00 | 0.00 | 0.00 | 55 | 1017.0 |
| 20260506090012 | 21 | 228 | 0.0 | 0.0 | 0.00 | 0.00 | 0.00 | 56 | 1017.0 |
| 20260506085512 | 20 | 156 | 4.8 | 4.8 | 0.00 | 0.00 | 0.00 | 58 | 1017.0 |
| 20260506085012 | 20 | 202 | 0.0 | 0.0 | 0.00 | 0.00 | 0.00 | 60 | 1017.0 |
| 20260506084512 | 20 | 165 | 3.2 | 3.2 | 0.00 | 0.00 | 0.00 | 60 | 1017.0 |
| 20260506084012 | 21 | 180 | 6.4 | 6.4 | 0.00 | 0.00 | 0.00 | 59 | 1017.0 |
| 20260506083513 | 21 | 241 | 0.0 | 0.0 | 0.00 | 0.00 | 0.00 | 58 | 1017.0 |
| 20260506083013 | 20 | 179 | 8.0 | 9.7 | 0.00 | 0.00 | 0.00 | 60 | 1017.0 |
| 20260506082512 | 20 | 162 | 0.0 | 0.0 | 0.00 | 0.00 | 0.00 | 60 | 1017.0 |
| 20260506082013 | 21 | 280 | 3.2 | 3.2 | 0.00 | 0.00 | 0.00 | 58 | 1017.0 |
| 20260506081512 | 20 | 144 | 11.3 | 11.3 | 0.00 | 0.00 | 0.00 | 61 | 1017.0 |
| 20260506081012 | 20 | 179 | 1.6 | 1.6 | 0.00 | 0.00 | 0.00 | 61 | 1017.0 |
| 20260506080512 | 21 | 258 | 4.8 | 4.8 | 0.00 | 0.00 | 0.00 | 60 | 1017.0 |
| 20260506073512 | 19 | 160 | 0.0 | 0.0 | 0.00 | 0.00 | 0.00 | 65 | 1017.0 |
| 20260506073013 | 20 | 186 | 6.4 | 6.4 | 0.00 | 0.00 | 0.00 | 64 | 1017.0 |
| 20260506072512 | 20 | 280 | 6.4 | 6.4 | 0.00 | 0.00 | 0.00 | 61 | 1017.0 |
| 20260506072012 | 20 | 18 | 0.0 | 0.0 | 0.00 | 0.00 | 0.00 | 61 | 1017.0 |
| 20260506071512 | 19 | 344 | 1.6 | 1.6 | 0.00 | 0.00 | 0.00 | 63 | 1017.0 |
| 20260506071013 | 19 | 177 | 0.0 | 0.0 | 0.00 | 0.00 | 0.00 | 66 | 1017.0 |
| 20260506070512 | 18 | 202 | 4.8 | 4.8 | 0.00 | 0.00 | 0.00 | 64 | 1017.0 |
| 20260506062512 | 18 | 168 | 4.8 | 4.8 | 0.00 | 0.00 | 0.00 | 71 | 1017.0 |
| 20260506062012 | 18 | 191 | 0.0 | 0.0 | 0.00 | 0.00 | 0.00 | 69 | 1017.0 |
| 20260506061512 | 18 | 193 | 4.8 | 4.8 | 0.00 | 0.00 | 0.00 | 69 | 1017.0 |
| 20260506061012 | 18 | 174 | 0.0 | 0.0 | 0.00 | 0.00 | 0.00 | 72 | 1017.0 |
| 20260506060513 | 18 | 276 | 3.2 | 3.2 | 0.00 | 0.00 | 0.00 | 71 | 1017.0 |
| 20260506051013 | 15 | 270 | 1.6 | 1.6 | 0.00 | 0.00 | 0.00 | 72 | 1017.0 |
| 20260506050512 | 15 | 270 | 0.0 | 0.0 | 0.00 | 0.00 | 0.00 | 73 | 1017.0 |
| 20260506045013 | 15 | 96 | 0.0 | 0.0 | 0.00 | 0.00 | 0.00 | 75 | 1017.0 |
| 20260506044512 | 15 | 96 | 0.0 | 0.0 | 0.00 | 0.00 | 0.00 | 74 | 1017.0 |
| 20260506044013 | 15 | 96 | 0.0 | 0.0 | 0.00 | 0.00 | 0.00 | 72 | 1017.0 |
| 20260506043512 | 14 | 96 | 0.0 | 0.0 | 0.00 | 0.00 | 0.00 | 71 | 1017.0 |
| 20260506043013 | 14 | 102 | 0.0 | 0.0 | 0.00 | 0.00 | 0.00 | 75 | 1017.0 |
| 20260506042513 | 15 | 102 | 0.0 | 0.0 | 0.00 | 0.00 | 0.00 | 74 | 1017.0 |
| 20260506042012 | 14 | 102 | 0.0 | 0.0 | 0.00 | 0.00 | 0.00 | 72 | 1017.0 |
| 20260506041512 | 14 | 102 | 0.0 | 0.0 | 0.00 | 0.00 | 0.00 | 73 | 1017.0 |
| 20260506041012 | 14 | 19 | 0.0 | 0.0 | 0.00 | 0.00 | 0.00 | 68 | 1017.0 |
| 20260506040513 | 14 | 12 | 0.0 | 0.0 | 0.00 | 0.00 | 0.00 | 67 | 1017.0 |
| 20260506040012 | 13 | 12 | 1.6 | 1.6 | 0.00 | 0.00 | 0.00 | 69 | 1017.0 |
| 20260506035513 | 13 | 3 | 3.2 | 3.2 | 0.00 | 0.00 | 0.00 | 72 | 1017.0 |
| 20260506035012 | 13 | 357 | 0.0 | 0.0 | 0.00 | 0.00 | 0.00 | 74 | 1017.0 |
| 20260506034512 | 13 | 357 | 0.0 | 0.0 | 0.00 | 0.00 | 0.00 | 74 | 1017.0 |
| 20260506034012 | 13 | 357 | 0.0 | 0.0 | 0.00 | 0.00 | 0.00 | 74 | 1017.0 |
| 20260506033512 | 13 | 357 | 0.0 | 0.0 | 0.00 | 0.00 | 0.00 | 76 | 1017.0 |
| 20260506033012 | 13 | 357 | 0.0 | 0.0 | 0.00 | 0.00 | 0.00 | 73 | 1016.0 |
| 20260506032513 | 13 | 357 | 0.0 | 0.0 | 0.00 | 0.00 | 0.00 | 72 | 1016.0 |
| 20260506032012 | 13 | 357 | 0.0 | 0.0 | 0.00 | 0.00 | 0.00 | 71 | 1016.0 |
| 20260506031512 | 14 | 357 | 0.0 | 0.0 | 0.00 | 0.00 | 0.00 | 70 | 1016.0 |
| 20260506031013 | 14 | 357 | 0.0 | 0.0 | 0.00 | 0.00 | 0.00 | 67 | 1016.0 |
| 20260506030512 | 15 | 357 | 0.0 | 0.0 | 0.00 | 0.00 | 0.00 | 66 | 1016.0 |
| 20260506030013 | 15 | 2 | 0.0 | 0.0 | 0.00 | 0.00 | 0.00 | 65 | 1016.0 |
| 20260506025512 | 15 | 2 | 0.0 | 0.0 | 0.00 | 0.00 | 0.00 | 64 | 1016.0 |
| 20260506025013 | 15 | 342 | 3.2 | 3.2 | 0.00 | 0.00 | 0.00 | 64 | 1016.0 |
| 20260506024512 | 15 | 18 | 0.0 | 0.0 | 0.00 | 0.00 | 0.00 | 65 | 1016.0 |
| 20260506024012 | 15 | 12 | 0.0 | 0.0 | 0.00 | 0.00 | 0.00 | 65 | 1016.0 |
| 20260506023512 | 15 | 18 | 0.0 | 0.0 | 0.00 | 0.00 | 0.00 | 69 | 1016.0 |
| 20260506023012 | 14 | 72 | 0.0 | 0.0 | 0.00 | 0.00 | 0.00 | 75 | 1016.0 |
| 20260506022512 | 15 | 72 | 0.0 | 0.0 | 0.00 | 0.00 | 0.00 | 74 | 1016.0 |
| 20260506022012 | 15 | 72 | 0.0 | 0.0 | 0.00 | 0.00 | 0.00 | 74 | 1016.0 |
| 20260506021513 | 15 | 72 | 0.0 | 0.0 | 0.00 | 0.00 | 0.00 | 73 | 1016.0 |
| 20260506021012 | 15 | 72 | 0.0 | 0.0 | 0.00 | 0.00 | 0.00 | 73 | 1016.0 |
| 20260506020512 | 15 | 72 | 0.0 | 0.0 | 0.00 | 0.00 | 0.00 | 74 | 1016.0 |
| 20260506020013 | 15 | 123 | 0.0 | 0.0 | 0.00 | 0.00 | 0.00 | 73 | 1016.0 |
| 20260506015512 | 15 | 123 | 0.0 | 0.0 | 0.00 | 0.00 | 0.00 | 72 | 1016.0 |
| 20260506015012 | 16 | 123 | 0.0 | 0.0 | 0.00 | 0.00 | 0.00 | 66 | 1016.0 |
| 20260506014512 | 16 | 80 | 1.6 | 1.6 | 0.00 | 0.00 | 0.00 | 68 | 1016.0 |
| 20260506014012 | 16 | 114 | 3.2 | 3.2 | 0.00 | 0.00 | 0.00 | 69 | 1016.0 |
| 20260506013512 | 16 | 118 | 1.6 | 1.6 | 0.00 | 0.00 | 0.00 | 69 | 1016.0 |
| 20260506013013 | 16 | 84 | 0.0 | 0.0 | 0.00 | 0.00 | 0.00 | 66 | 1016.0 |
| 20260506012512 | 16 | 42 | 1.6 | 1.6 | 0.00 | 0.00 | 0.00 | 62 | 1016.0 |
| 20260506012014 | 16 | 52 | 6.4 | 6.4 | 0.00 | 0.00 | 0.00 | 62 | 1016.0 |
| 20260506011512 | 15 | 90 | 0.0 | 0.0 | 0.00 | 0.00 | 0.00 | 63 | 1016.0 |
| 20260506011012 | 14 | 84 | 0.0 | 0.0 | 0.00 | 0.00 | 0.00 | 66 | 1016.0 |
| 20260506010512 | 14 | 331 | 0.0 | 0.0 | 0.00 | 0.00 | 0.00 | 73 | 1016.0 |
| 20260506010012 | 13 | 331 | 0.0 | 0.0 | 0.00 | 0.00 | 0.00 | 73 | 1016.0 |
| 20260506005512 | 13 | 331 | 0.0 | 0.0 | 0.00 | 0.00 | 0.00 | 72 | 1016.0 |
| 20260506005012 | 13 | 331 | 0.0 | 0.0 | 0.00 | 0.00 | 0.00 | 74 | 1016.0 |
| 20260506004513 | 13 | 331 | 0.0 | 0.0 | 0.00 | 0.00 | 0.00 | 74 | 1016.0 |
| 20260506004012 | 13 | 331 | 0.0 | 0.0 | 0.00 | 0.00 | 0.00 | 74 | 1016.0 |
| 20260506003512 | 14 | 331 | 0.0 | 0.0 | 0.00 | 0.00 | 0.00 | 74 | 1016.0 |
| 20260506003013 | 14 | 331 | 0.0 | 0.0 | 0.00 | 0.00 | 0.00 | 72 | 1016.0 |
| 20260506002513 | 13 | 331 | 0.0 | 0.0 | 0.00 | 0.00 | 0.00 | 72 | 1016.0 |
| 20260506002012 | 13 | 204 | 0.0 | 0.0 | 0.00 | 0.00 | 0.00 | 74 | 1016.0 |
| 20260506001512 | 14 | 204 | 0.0 | 0.0 | 0.00 | 0.00 | 0.00 | 71 | 1016.0 |
| 20260506001012 | 14 | 336 | 0.0 | 0.0 | 0.00 | 0.00 | 0.00 | 69 | 1016.0 |